Date String (YYYY-MM-DD hh:mm:ss) UTC,Instrument flags,Ambient pressure (hPa),Sample flow (lpm),Bypass flow (lpm),Sample temperature (°C),Ambient temperature (°C),ASC tube jacket temperature (°C),LED temperature (°C),Box temperature (°C),Sample RH (%),Span deviation,Mass concentration (μg/m³),Mass concentration (μg/m³),Mass concentration (μg/m³)
DateTimeUTC,F1_M11,P_M11,Q1_M11,Q2_M11,T1_M11,T2_M11,T3_M11,T4_M11,T5_M11,U1_M11,ZSPAN_M11,X2_M11,X0_M11,X1_M11
2022-05-13 19:00:00,,0825.8,5.01,0.00,28.4,27.7,00.0,37.2,30.2,07.1,0000.0,0003.10,0005.74,0002.02
2022-05-13 19:01:00,,0825.7,4.99,0.00,28.4,27.7,00.0,37.3,30.2,07.2,0000.0,0003.08,0005.78,0002.02
2022-05-13 19:02:00,,0825.7,5.00,0.00,28.4,27.8,00.0,37.3,30.2,07.4,0000.0,0003.03,0005.63,0002.01
2022-05-13 19:03:00,,0825.7,5.01,0.00,28.5,27.8,00.0,37.3,30.3,07.4,0000.0,0003.03,0006.97,0002.02
2022-05-13 19:04:00,,0825.7,4.99,0.00,28.5,27.8,00.0,37.3,30.3,07.0,0000.0,0003.05,0007.85,0002.02
2022-05-13 19:05:00,,0825.7,5.02,0.00,28.5,27.8,00.0,37.3,30.3,06.7,0000.0,0003.12,0007.91,0002.03
2022-05-13 19:06:00,,0825.7,5.00,0.00,28.5,27.8,00.0,37.3,30.2,07.0,0000.0,0003.08,0007.79,0002.03
2022-05-13 19:07:00,,0825.6,5.00,0.00,28.5,27.8,00.0,37.3,30.3,07.2,0000.0,0003.06,0007.78,0002.03
2022-05-13 19:08:00,,0825.5,5.00,0.00,28.5,27.8,00.0,37.4,30.3,06.9,0000.0,0003.11,0007.87,0002.04
2022-05-13 19:09:00,,0825.5,5.00,0.00,28.5,27.8,00.0,37.4,30.3,06.9,0000.0,0003.13,0007.89,0002.05
2022-05-13 19:10:00,,0825.5,5.00,0.00,28.5,27.8,00.0,37.4,30.3,07.3,0000.0,0003.14,0007.86,0002.06
2022-05-13 19:11:00,,0825.6,5.01,0.00,28.5,27.8,00.0,37.4,30.3,07.8,0000.0,0003.15,0007.85,0002.04
2022-05-13 19:12:00,,0825.7,4.99,0.00,28.5,27.8,00.0,37.4,30.3,07.2,0000.0,0003.18,0007.86,0002.03
2022-05-13 19:13:00,,0825.6,5.00,0.00,28.5,27.8,00.0,37.4,30.3,07.6,0000.0,0003.21,0007.94,0002.04
2022-05-13 19:14:00,,0825.6,5.00,0.00,28.5,27.8,00.0,37.4,30.3,07.1,0000.0,0003.22,0006.88,0002.04
2022-05-13 19:15:00,,0825.5,4.99,0.00,28.5,27.9,00.0,37.4,30.3,07.0,0000.0,0003.21,0005.84,0002.02
2022-05-13 19:16:00,,0825.4,5.00,0.00,28.5,27.9,00.0,37.4,30.4,07.0,0000.0,0003.19,0005.79,0002.00
2022-05-13 19:17:00,,0825.5,5.00,0.00,28.6,27.9,00.0,37.4,30.4,07.6,0000.0,0003.24,0006.10,0002.02
2022-05-13 19:18:00,,0825.6,4.99,0.00,28.6,27.9,00.0,37.5,30.4,07.4,0000.0,0003.27,0006.27,0002.03
2022-05-13 19:19:00,,0825.5,5.01,0.00,28.6,27.9,00.0,37.5,30.4,07.1,0000.0,0003.30,0006.40,0002.04
2022-05-13 19:20:00,,0825.5,4.98,0.00,28.6,27.9,00.0,37.5,30.5,07.0,0000.0,0003.32,0006.55,0002.04
2022-05-13 19:21:00,,0825.5,5.00,0.00,28.7,28.0,00.0,37.5,30.5,06.8,0000.0,0003.33,0006.80,0002.04
2022-05-13 19:22:00,,0825.3,5.00,0.00,28.7,28.0,00.0,37.5,30.5,06.8,0000.0,0003.31,0006.73,0002.04
2022-05-13 19:23:00,,0825.4,5.00,0.00,28.7,28.0,00.0,37.5,30.5,06.8,0000.0,0003.28,0006.67,0002.04
2022-05-13 19:24:00,,0825.4,4.99,0.00,28.7,28.0,00.0,37.5,30.5,07.3,0000.0,0003.27,0006.69,0002.05
2022-05-13 19:25:00,,0825.4,5.00,0.00,28.7,28.0,00.0,37.5,30.5,07.5,0000.0,0003.25,0006.68,0002.05
2022-05-13 19:26:00,,0825.4,5.01,0.00,28.7,28.0,00.0,37.5,30.5,07.6,0000.0,0003.24,0006.62,0002.06
2022-05-13 19:27:00,,0825.4,5.00,0.00,28.7,28.0,00.0,37.6,30.5,06.8,0000.0,0003.25,0006.66,0002.06
2022-05-13 19:28:00,,0825.4,5.01,0.00,28.7,28.0,00.0,37.6,30.5,07.1,0000.0,0003.22,0006.37,0002.06
2022-05-13 19:29:00,,0825.4,5.01,0.00,28.7,28.0,00.0,37.6,30.5,06.7,0000.0,0003.20,0006.22,0002.06
2022-05-13 19:30:00,,0825.3,4.99,0.00,28.8,28.0,00.0,37.6,30.5,06.8,0000.0,0003.18,0006.08,0002.04
2022-05-13 19:31:00,,0825.3,5.01,0.00,28.8,28.1,00.0,37.6,30.5,06.9,0000.0,0003.17,0006.07,0002.05
2022-05-13 19:32:00,,0825.3,4.99,0.00,28.8,28.1,00.0,37.6,30.6,07.3,0000.0,0003.11,0005.74,0002.05
2022-05-13 19:33:00,,0825.3,5.01,0.00,28.8,28.1,00.0,37.6,30.6,07.2,0000.0,0003.04,0005.52,0002.04
2022-05-13 19:34:00,,0825.3,5.00,0.00,28.8,28.1,00.0,37.7,30.6,07.1,0000.0,0003.07,0005.71,0002.05
2022-05-13 19:35:00,,0825.3,5.00,0.00,28.8,28.1,00.0,37.7,30.6,07.3,0000.0,0003.09,0005.92,0002.05
2022-05-13 19:36:00,,0825.3,5.01,0.00,28.8,28.1,00.0,37.7,30.6,07.1,0000.0,0003.11,0005.89,0002.05
2022-05-13 19:37:00,,0825.3,5.00,0.00,28.8,28.1,00.0,37.7,30.6,07.1,0000.0,0003.11,0005.85,0002.05
2022-05-13 19:38:00,,0825.3,4.99,0.00,28.8,28.1,00.0,37.7,30.6,06.7,0000.0,0003.09,0005.83,0002.04
2022-05-13 19:39:00,,0825.3,5.01,0.00,28.9,28.1,00.0,37.7,30.6,07.1,0000.0,0003.08,0005.80,0002.03
2022-05-13 19:40:00,,0825.3,4.99,0.00,28.9,28.2,00.0,37.7,30.7,07.5,0000.0,0003.07,0005.75,0002.01
2022-05-13 19:41:00,,0825.2,5.00,0.00,28.9,28.2,00.0,37.7,30.7,07.0,0000.0,0003.02,0005.67,0002.01
2022-05-13 19:42:00,,0825.2,5.00,0.00,28.9,28.2,00.0,37.8,30.7,06.9,0000.0,0003.04,0005.76,0002.00
2022-05-13 19:43:00,,0825.1,5.01,0.00,28.9,28.2,00.0,37.8,30.7,07.0,0000.0,0003.07,0006.09,0001.98
2022-05-13 19:44:00,,0825.1,4.99,0.00,28.9,28.2,00.0,37.8,30.7,07.2,0000.0,0003.07,0006.11,0001.98
2022-05-13 19:45:00,,0825.3,5.01,0.00,28.9,28.2,00.0,37.8,30.7,07.2,0000.0,0003.10,0006.03,0001.97
2022-05-13 19:46:00,,0825.2,4.99,0.00,28.9,28.2,00.0,37.8,30.7,07.4,0000.0,0003.06,0005.64,0001.96
2022-05-13 19:47:00,,0825.1,5.01,0.00,28.9,28.2,00.0,37.8,30.7,07.4,0000.0,0003.09,0005.76,0001.96
2022-05-13 19:48:00,,0825.0,5.00,0.00,28.9,28.2,00.0,37.8,30.8,07.1,0000.0,0003.14,0005.98,0001.95
2022-05-13 19:49:00,,0825.0,5.00,0.00,29.0,28.2,00.0,37.8,30.8,07.0,0000.0,0003.13,0006.46,0001.94
2022-05-13 19:50:00,,0825.1,5.01,0.00,29.0,28.2,00.0,37.8,30.8,06.6,0000.0,0003.14,0007.07,0001.94
2022-05-13 19:51:00,,0825.1,5.00,0.00,29.0,28.2,00.0,37.8,30.8,06.9,0000.0,0003.13,0007.01,0001.94
2022-05-13 19:52:00,,0825.1,4.99,0.00,29.0,28.2,00.0,37.9,30.8,06.8,0000.0,0003.14,0007.03,0001.94
2022-05-13 19:53:00,,0824.9,5.02,0.00,29.0,28.3,00.0,37.9,30.8,07.0,0000.0,0003.13,0007.10,0001.94
2022-05-13 19:54:00,,0824.8,4.99,0.00,29.0,28.3,00.0,37.9,30.8,06.7,0000.0,0003.14,0006.82,0001.96
2022-05-13 19:55:00,,0824.7,5.01,0.00,29.1,28.3,00.0,37.9,30.9,06.7,0000.0,0003.17,0006.92,0001.97
2022-05-13 19:56:00,,0824.7,5.00,0.00,29.1,28.3,00.0,37.9,30.9,06.7,0000.0,0003.21,0007.44,0001.98
2022-05-13 19:57:00,,0824.7,5.00,0.00,29.1,28.3,00.0,37.9,30.9,06.9,0000.0,0003.26,0007.82,0001.99
2022-05-13 19:58:00,,0824.7,5.01,0.00,29.1,28.3,00.0,37.9,30.9,06.7,0000.0,0003.23,0007.73,0001.98
2022-05-13 19:59:00,,0824.7,4.99,0.00,29.1,28.4,00.0,37.9,30.9,06.7,0000.0,0003.23,0007.74,0001.99
